[[{"header":{"parameterUnit":"m.s-1","parameterCategory":1,"la1":30.2991,"la2":30.254,"lo1":-89.0895,"lo2":-89.0444,"dy":0.0017,"dx":0.0017,"nx":28,"ny":28,"refTime":"2024-06-02T03:00:00:Z","depth":0,"parameterNumber":2,"parameterNumberName":"U-component_of_WINDS"},"data":[0,0,0,0,0,0,0,0,0,0,0,0,0,0,0,0,0,0,0,0,0,0,0,0,0,0,0,0,0,0,0,0,0,0,0,0,0,0,0,0,0,0,0,0,0,0,0,0,0,0,0,0,0,0,0,0,0,0,-1.4839,-1.4838,0,-1.4813,-1.4813,-1.4812,-1.4816,-1.4816,-1.4817,-1.4817,-1.4788,-1.4787,-1.4786,0,0,0,0,0,0,0,0,0,0,0,0,0,-1.4889,-1.4888,-1.4839,-1.4838,-1.4838,-1.4813,-1.4813,-1.4812,-1.4816,-1.4816,-1.4817,-1.4817,-1.4789,-1.4787,-1.4786,0,0,0,0,0,0,0,0,0,0,0,0,0,-1.4866,-1.4888,-1.4839,-1.4837,-1.4836,-1.4813,-1.4813,-1.4812,-1.4816,-1.4816,-1.4817,-1.4818,-1.4789,-1.4787,-1.4786,-1.4762,0,0,-1.478,-1.478,0,0,0,0,0,0,0,0,-1.4867,-1.4864,-1.4837,-1.4837,-1.4836,-1.4818,-1.482,-1.4795,-1.4815,-1.4823,-1.4817,-1.4818,-1.4798,-1.4795,-1.4789,-1.4761,-1.4759,-1.478,-1.4779,-1.4778,-1.4778,0,0,0,0,0,0,0,-1.4869,-1.4865,-1.4828,-1.4837,-1.4836,-1.4837,-1.4834,-1.4815,-1.4807,-1.4823,-1.4823,-1.482,-1.4797,-1.4791,-1.4788,-1.4759,-1.478,-1.4779,-1.4778,-1.4777,-1.4711,-1.471,0,0,0,0,0,0,-1.4871,-1.4866,-1.4829,-1.4828,-1.4854,-1.4835,-1.4832,-1.4823,-1.4807,-1.4806,-1.4819,-1.482,-1.4793,-1.479,-1.4787,-1.4758,-1.4778,-1.4777,-1.4776,-1.4711,-1.4711,-1.471,0,0,0,0,0,0,-1.4872,-1.4868,-1.483,-1.4847,-1.4842,-1.4834,-1.4824,-1.4823,-1.4816,-1.4805,-1.4803,-1.4814,-1.4794,-1.479,-1.4769,-1.4758,-1.4776,-1.4774,-1.4712,-1.4711,-1.471,-1.4701,0,0,0,0,0,0,-1.4873,-1.4868,-1.4859,-1.4847,-1.4841,-1.4812,-1.4823,-1.4822,-1.4813,-1.4814,-1.4799,-1.4798,-1.4794,-1.4771,-1.4767,-1.4755,-1.4773,-1.4713,-1.4712,-1.471,-1.4702,-1.47,-1.4697,0,0,0,0,0,-1.4875,-1.4857,-1.4859,-1.4854,-1.483,-1.4812,-1.4809,-1.4805,-1.4812,-1.4803,-1.4796,-1.4798,-1.476,-1.4769,-1.4764,-1.4752,-1.4714,-1.4712,-1.4711,-1.4703,-1.47,-1.4697,0,0,0,0,0,0,-1.4867,-1.4855,-1.4857,-1.4834,-1.4824,-1.4812,-1.4801,-1.4802,-1.4789,-1.479,-1.4786,-1.4783,-1.4762,-1.4755,-1.4765,-1.4729,-1.4738,-1.4735,-1.4734,-1.4731,-1.4728,-1.473,-1.4772,0,0,0,0,0,-1.4863,-1.4849,-1.484,-1.482,-1.4815,-1.4809,-1.4801,-1.4799,-1.4788,-1.4784,-1.4775,-1.4764,-1.475,-1.474,-1.4726,-1.4702,-1.4698,-1.4691,-1.4689,-1.4687,-1.4684,-1.4671,-1.4668,-1.4705,-1.4705,-1.4705,0,0,-1.4853,-1.4845,-1.4837,-1.4818,-1.481,-1.4796,-1.4805,-1.4789,-1.4779,-1.4781,-1.4761,-1.4755,-1.4742,-1.4719,-1.4708,-1.4713,-1.4674,-1.4685,-1.4684,-1.4682,-1.4669,-1.4666,-1.4662,-1.4703,-1.4704,-1.4704,0,0,-1.4828,-1.4821,-1.4805,-1.4797,-1.4785,-1.4781,-1.4777,-1.4766,-1.4762,-1.4742,-1.4744,-1.4731,-1.4706,-1.4697,-1.4689,-1.4662,-1.4663,-1.4658,-1.4645,-1.4632,-1.463,-1.4627,-1.4617,-1.4614,-1.4656,-1.4656,-1.4656,0,-1.4818,-1.4797,-1.4796,-1.478,-1.4772,-1.4775,-1.4758,-1.475,-1.4734,-1.4728,-1.4734,-1.4703,-1.4695,-1.467,-1.4664,-1.4657,-1.4652,-1.4659,-1.463,-1.4628,-1.4625,-1.4616,-1.4612,-1.4655,-1.4655,-1.4655,-1.4655,0,-1.4784,-1.477,-1.4758,-1.4743,-1.4734,-1.4718,-1.4714,-1.4704,-1.4704,-1.47,-1.468,-1.467,-1.4654,-1.4649,-1.4648,-1.4624,-1.4627,-1.4631,-1.464,-1.4621,-1.4612,-1.4608,-1.4654,-1.4654,-1.4654,-1.4655,0,0,-1.4752,-1.4738,-1.4734,-1.4727,-1.4715,-1.4704,-1.4688,-1.4674,-1.4666,-1.4655,-1.4641,-1.4621,-1.4625,-1.4617,-1.4615,-1.4604,-1.4583,-1.461,-1.4609,-1.4605,-1.4556,-1.4552,-1.4548,-1.4585,-1.4584,-1.4584,-1.4557,0,-1.4725,-1.4698,-1.4697,-1.4671,-1.4658,-1.4662,-1.4648,-1.4639,-1.4635,-1.4622,-1.4618,-1.4603,-1.461,-1.4605,-1.4594,-1.4588,-1.4574,-1.459,-1.4571,-1.457,-1.4573,-1.4543,-1.4539,-1.4514,-1.4554,-1.4553,-1.4553,0,-1.469,-1.468,-1.4653,-1.4644,-1.4638,-1.4626,-1.4613,-1.4602,-1.4592,-1.4589,-1.458,-1.4581,-1.4564,-1.4575,-1.4552,-1.4563,-1.4556,-1.4552,-1.4551,-1.4548,-1.4559,-1.4539,-1.4506,-1.4502,-1.4547,-1.4548,-1.4548,0,-1.4669,-1.4648,-1.4629,-1.4624,-1.4613,-1.4604,-1.4599,-1.4589,-1.4581,-1.457,-1.4565,-1.4552,-1.4544,-1.4534,-1.4531,-1.4539,-1.4508,-1.4518,-1.4505,-1.4505,-1.4496,-1.4497,-1.4461,-1.4494,-1.4494,-1.4494,-1.4494,0,-1.4638,-1.4622,-1.4619,-1.4608,-1.4589,-1.4589,-1.457,-1.4566,-1.4558,-1.4545,-1.4548,-1.4536,-1.4533,-1.4521,-1.4518,-1.4499,-1.4496,-1.4494,-1.4493,-1.4493,-1.4493,-1.4486,-1.4488,-1.4493,-1.4493,-1.4493,-1.4493,0,-1.461,-1.4608,-1.4588,-1.458,-1.4577,-1.4564,-1.4557,-1.4545,-1.4543,-1.4527,-1.4523,-1.4518,-1.4503,-1.45,-1.4482,-1.4481,-1.4458,-1.446,-1.4461,-1.4461,-1.4448,-1.4449,-1.4406,-1.44,-1.4437,-1.4437,-1.4437,0,-1.459,-1.4578,-1.4569,-1.4561,-1.4556,-1.4543,-1.4535,-1.4534,-1.4526,-1.4514,-1.4504,-1.4491,-1.4479,-1.4456,-1.445,-1.4437,-1.4438,-1.4424,-1.4435,-1.4436,-1.4436,-1.4437,-1.4435,-1.4421,-1.442,-1.442,-1.442,0,-1.4556,-1.4555,-1.4544,-1.4533,-1.4523,-1.4514,-1.4505,-1.4498,-1.4497,-1.4487,-1.4473,-1.4464,-1.4447,-1.4433,-1.442,-1.4414,-1.4416,-1.4417,-1.4413,-1.4411,-1.4413,-1.4411,-1.4454,-1.4417,-1.4417,-1.4417,-1.4418,-1.4418,-1.453,-1.452,-1.4512,-1.4499,-1.4493,-1.4485,-1.4474,-1.447,-1.4459,-1.4445,-1.4446,-1.443,-1.4421,-1.4404,-1.4398,-1.4385,-1.4389,-1.4384,-1.4382,-1.438,-1.4379,-1.4416,-1.4383,-1.4383,-1.4383,-1.4383,-1.4383,0,-1.4495,-1.4491,-1.4479,-1.4467,-1.4457,-1.4462,-1.4453,-1.4444,-1.443,-1.4422,-1.4412,-1.4396,-1.4382,-1.4376,-1.4363,-1.4355,-1.4355,-1.4351,-1.4351,-1.435,-1.4376,-1.4381,-1.4351,-1.4351,-1.4351,-1.4351,-1.4351,-1.4351,-1.4475,-1.4457,-1.4456,-1.4435,-1.4431,-1.4416,-1.441,-1.4403,-1.4397,-1.4379,-1.4368,-1.4365,-1.4358,-1.4344,-1.4332,-1.4331,-1.4326,-1.4321,-1.432,-1.4344,-1.4348,-1.4351,-1.4355,-1.432,-1.432,-1.4294,-1.4294,-1.4293]},{"header":{"parameterUnit":"m.s-1","parameterCategory":1,"la1":30.2991,"la2":30.254,"lo1":-89.0895,"lo2":-89.0444,"dy":0.0017,"dx":0.0017,"nx":28,"ny":28,"refTime":"2024-06-02T03:00:00:Z","depth":0,"parameterNumber":3,"parameterNumberName":"V-component_of_WINDS"},"data":[0,0,0,0,0,0,0,0,0,0,0,0,0,0,0,0,0,0,0,0,0,0,0,0,0,0,0,0,0,0,0,0,0,0,0,0,0,0,0,0,0,0,0,0,0,0,0,0,0,0,0,0,0,0,0,0,0,0,3.6667,3.6668,0,3.6744,3.6745,3.6746,3.6732,3.6731,3.673,3.6728,3.6805,3.6808,3.6811,0,0,0,0,0,0,0,0,0,0,0,0,0,3.6506,3.651,3.6667,3.6668,3.6669,3.6744,3.6745,3.6746,3.6732,3.6731,3.6729,3.6728,3.6804,3.6808,3.6812,0,0,0,0,0,0,0,0,0,0,0,0,0,3.6579,3.651,3.6667,3.6671,3.6672,3.6743,3.6745,3.6746,3.6733,3.6731,3.6729,3.6727,3.6802,3.6807,3.6812,3.6883,0,0,3.6827,3.6829,0,0,0,0,0,0,0,0,3.6575,3.6585,3.667,3.6671,3.6672,3.6726,3.6716,3.6792,3.6733,3.671,3.6728,3.6726,3.678,3.6787,3.6806,3.6886,3.689,3.6828,3.6831,3.6833,3.6834,0,0,0,0,0,0,0,3.657,3.6581,3.6697,3.6671,3.6673,3.6669,3.6677,3.6731,3.6755,3.6712,3.6711,3.672,3.6781,3.6801,3.6807,3.6891,3.6827,3.6832,3.6835,3.6837,3.7034,3.7037,0,0,0,0,0,0,3.6564,3.6577,3.6695,3.67,3.6618,3.6673,3.6682,3.6711,3.6755,3.6759,3.6722,3.6719,3.6793,3.6802,3.681,3.6897,3.6833,3.6837,3.684,3.7032,3.7035,3.7037,0,0,0,0,0,0,3.656,3.6574,3.6692,3.6638,3.6653,3.6678,3.6711,3.6714,3.6734,3.6762,3.6767,3.6738,3.6792,3.6803,3.6865,3.6899,3.6839,3.6844,3.7029,3.7033,3.7036,3.707,0,0,0,0,0,0,3.6556,3.6573,3.6601,3.6639,3.6656,3.6746,3.6713,3.6717,3.6743,3.674,3.6779,3.6783,3.6791,3.6858,3.687,3.6905,3.6848,3.7027,3.7031,3.7035,3.7066,3.7075,3.7082,0,0,0,0,0,3.655,3.6607,3.6602,3.6617,3.6691,3.6748,3.6758,3.6767,3.6746,3.6774,3.6792,3.6782,3.6893,3.6864,3.6878,3.6915,3.7024,3.703,3.7035,3.7063,3.7073,3.7081,0,0,0,0,0,0,3.6571,3.6612,3.6607,3.6678,3.671,3.6746,3.6782,3.6777,3.6815,3.6811,3.6819,3.6828,3.6892,3.6909,3.6876,3.6986,3.6956,3.6964,3.6973,3.6982,3.699,3.6985,3.6852,0,0,0,0,0,3.6584,3.6628,3.6661,3.672,3.6736,3.6756,3.6781,3.6785,3.6818,3.6832,3.6854,3.6886,3.6928,3.6956,3.6996,3.7068,3.7077,3.71,3.7108,3.7114,3.7121,3.7162,3.7173,3.7054,3.7054,3.7054,0,0,3.6611,3.6639,3.6666,3.6725,3.675,3.6795,3.6768,3.6816,3.6849,3.6839,3.69,3.6917,3.6953,3.7021,3.7052,3.7038,3.7156,3.7121,3.7125,3.7129,3.7168,3.7179,3.7189,3.7058,3.7057,3.7057,0,0,3.6684,3.6709,3.6761,3.6787,3.6826,3.6839,3.6852,3.6889,3.6901,3.6962,3.6955,3.6994,3.7066,3.7093,3.7116,3.7198,3.7191,3.7211,3.7251,3.7291,3.73,3.7308,3.7339,3.735,3.7218,3.7218,3.7218,0,3.6712,3.6781,3.6789,3.6839,3.6865,3.6858,3.6912,3.6936,3.6986,3.7004,3.6987,3.7078,3.7102,3.7176,3.7197,3.7215,3.723,3.7207,3.7298,3.7307,3.7315,3.7344,3.7355,3.722,3.722,3.722,3.722,0,3.6815,3.6862,3.69,3.6949,3.6979,3.7031,3.7046,3.7076,3.7077,3.7092,3.7154,3.7182,3.7229,3.7246,3.7247,3.7321,3.7311,3.7296,3.7266,3.7328,3.7356,3.7367,3.7224,3.7223,3.7222,3.7221,0,0,3.6904,3.6957,3.6971,3.6994,3.7036,3.7073,3.7123,3.7169,3.7195,3.7229,3.7272,3.7334,3.732,3.7346,3.735,3.7384,3.745,3.7365,3.7366,3.7381,3.7534,3.7546,3.7559,3.7445,3.7447,3.7448,3.7531,0,3.6981,3.7072,3.7081,3.7163,3.7207,3.7201,3.7245,3.7275,3.729,3.7329,3.7345,3.7389,3.7367,3.7383,3.7416,3.7435,3.7481,3.7429,3.7485,3.7487,3.7478,3.7574,3.7587,3.7664,3.7542,3.7544,3.7545,0,3.7085,3.7123,3.7209,3.7246,3.7265,3.7305,3.7348,3.7386,3.742,3.7428,3.7457,3.7457,3.7509,3.7476,3.7548,3.7512,3.7536,3.7548,3.7551,3.7558,3.7521,3.7584,3.7688,3.77,3.7562,3.7561,3.756,0,3.7143,3.7216,3.7278,3.7297,3.7341,3.7369,3.7389,3.7421,3.7448,3.7486,3.7504,3.7546,3.757,3.7603,3.7613,3.7588,3.7685,3.7653,3.7694,3.7694,3.7716,3.7715,3.7827,3.7729,3.7728,3.7728,3.7728,0,3.723,3.7284,3.7305,3.7342,3.7402,3.7411,3.7469,3.7487,3.7516,3.7557,3.7553,3.7591,3.7602,3.7643,3.7651,3.771,3.772,3.7729,3.7731,3.773,3.7729,3.7747,3.7742,3.7731,3.7731,3.773,3.7729,0,3.7306,3.7322,3.7389,3.7425,3.7436,3.7478,3.7509,3.7545,3.7559,3.7611,3.7624,3.7645,3.7692,3.7706,3.7762,3.7768,3.7838,3.7834,3.7827,3.7827,3.7868,3.7865,3.7997,3.8015,3.7903,3.7904,3.7905,0,3.7362,3.7403,3.7444,3.7472,3.7493,3.7537,3.7565,3.7575,3.7605,3.7647,3.7678,3.7725,3.7763,3.7839,3.7859,3.7902,3.79,3.7943,3.7907,3.7905,3.7903,3.7901,3.7906,3.7951,3.7952,3.7953,3.7954,0,3.7459,3.7465,3.7507,3.7551,3.7585,3.762,3.7654,3.7676,3.7691,3.7724,3.7773,3.7803,3.7861,3.7907,3.7951,3.797,3.7965,3.7965,3.7977,3.7978,3.7973,3.7978,3.7847,3.7962,3.7962,3.7961,3.796,3.796,3.7528,3.7565,3.76,3.7646,3.7672,3.7704,3.774,3.7759,3.78,3.7849,3.7852,3.7905,3.7938,3.7996,3.8018,3.8059,3.8046,3.8064,3.8068,3.8073,3.8077,3.7965,3.8067,3.8067,3.8066,3.8066,3.8066,0,3.7627,3.7649,3.7691,3.7739,3.7775,3.7767,3.7804,3.7835,3.7882,3.7913,3.7951,3.8008,3.8053,3.8077,3.8122,3.815,3.8149,3.8162,3.8161,3.8166,3.8085,3.8071,3.8162,3.8162,3.8162,3.8162,3.8162,3.8162,3.7683,3.7744,3.7754,3.7829,3.7851,3.7904,3.7925,3.7955,3.798,3.8043,3.8081,3.8097,3.8125,3.8172,3.8214,3.8219,3.8237,3.8252,3.8256,3.8181,3.8171,3.8162,3.8149,3.8255,3.8255,3.8333,3.8334,3.8335]}]]